FREGAT DEB, 45638

Orbit data source: Space-Track

FREGAT DEB, 45638 is space debris in LEO originally from a launch on Mon, 18 Jul 2011 UTC launched from the Tyuratam Missile And Space Complex (TTMTR). Debris objects in space refer to the collection of defunct objects orbiting the Earth. Examples of debris include non-operational satellites, rocket bodies, and fragments generated from explosions, collisions, or faulty payload assembly.

Loading next visibility...
Identifier
45638, 2011-037AE
Orbit
LEO
Last TLE update
22 hours ago
Origin
Manufacturer
Lavochkin
Mission
Spacecraft
Bus & Motor
Unknown
Mass
Unknown
Launch date (UTC)
2011-07-18 (14 years ago)
Launch vehicle
Unknown
Launch site
Tyuratam Missile And Space Complex (TTMTR)
Object type
Payload
Rocket body
Debris
Shape & HBR
Unknown
Radar Cross Section
Small (<0.1 m²)

Expand to show TLE details & history

TLE from 22 hours ago
0 FREGAT DEB
1 45638U 11037AE  25181.47102725  .00025379  00000-0  18812-2 0  9991
2 45638  51.4021 246.4668 1308209   0.1868 359.9267 12.72181509219765
Epoch: 2025-06-30T11:18Z
TLE epoch observation values (Epoch: 2025-06-30T11:18:16.754Z)
Latitude
-0.0001°
Longitude
158.11655°
Altitude
359.715 km
Speed
8.182 km/s
True Right ascension
16h 25m 52s
True Declination
0° 00' 00"
Sunlit
Object was in full shadow at epoch
Visualization orbit readout
Latitude
-32.34968°
Longitude
124.88908°
Altitude
609.383 km
Speed
7.923 km/s
Apparent Right ascension
12h 03m 58s
Apparent Declination
-41° 41' 22"
Sunlit
Object is in full shadow
Visualization observer readout
Local Sidereal Time
21:23:46
Azimuth
253.391° W
Elevation
-59.904°
Doppler factor
1
Orbital elements
Apogee altitude
2,387.643 km
Perigee altitude
359.476 km
Semi-major axis
7,751.697 km
Eccentricity
0.13082
Inclination
51.4021°
RAAN
246.4668°
Arg. of periapsis
0.1868°
True anomaly
Unknown
Mean anomaly
359.9267°
Eccentric anomaly
Unknown
Mean motion
3.18015 °/min
Orbital period
113.2 mins
BSTAR
0.0018812
Loading maneuver chart data...
Loading SW <> Apogee altitude chart data...
Loading historical data...
Loading historical data...
Loading historical data...
Loading historical data...
Loading historical data...
Loading historical data...
Loading historical data...

FREGAT DEB Visibility forecast

Observer location: undefined°, undefined°

Span
Click to sort rows by Start time (UTC) header in descending order
Start Az.
Max El. time (UTC)
Max El. Az.
Max El.
End time (UTC)
End Az.
12 mins2025-07-01 10:14:25.813Z306.462° NW2025-07-01 10:18:25.813Z356.838° N28.954°2025-07-01 10:26:25.813Z63.91° ENE
17 mins2025-07-01 12:13:25.813Z315.978° NNW2025-07-01 12:19:25.813Z31.669° NE38.778°2025-07-01 12:30:25.813Z100.725° ESE
20 mins2025-07-01 14:11:25.813Z301.576° NW2025-07-01 14:18:25.813Z237.938° WSW43.574°2025-07-01 14:31:25.813Z142.049° SSE
17 mins2025-07-01 16:10:25.813Z280.917° WNW2025-07-01 16:17:25.813Z238.952° WSW23.789°2025-07-01 16:27:25.813Z189.945° SSW
7 mins2025-07-02 06:51:25.813Z218.461° SW2025-07-02 06:53:25.813Z150.927° SSE43.599°2025-07-02 06:58:25.813Z56.133° ENE
9 mins2025-07-02 08:49:25.813Z296.118° NW2025-07-02 08:52:25.813Z350.374° N29.911°2025-07-02 08:58:25.813Z50.599° ENE
|